User: anonymous   Login
Location: Eyeline Observatory
(43.2182°N, 78.8632°W)
Time: 08:25:27
(UTC-04:00)
Language:

Envisat - Orbit

View from above orbital plane
View from above orbital plane
View from above satellite
View from above satellite

Ground track
Ground track

The orbit data is extracted from the following two-line orbital elements,

1 27386U 02009A   17294.12861357 -.00000010  00000-0  10411-4 0  9996
2 27386  98.2181 334.0581 0001267  88.5242 271.6102 14.37905820819170
Epoch (UTC): 21 October 2017 03:05:12
Eccentricity: 0.0001267
inclination: 98.2181°
perigee height: 764 km
apogee height: 766 km
right ascension of ascending node: 334.0581°
argument of perigee: 88.5242°
revolutions per day: 14.37905820
mean anomaly at epoch: 271.6102°
orbit number at epoch: 81917

The dashed part of the orbit path shows where the satellite is in the earth's shadow,  

DLR